Location: Haliburton Scout Reserve
(45.0900°N, 78.3200°W)
Time: 19:04:20
(UTC-04:00)

STRAND 1 - Pass Details

Date: 28 March 2023
Orbit: 767 x 779 km, 98.4° (Epoch: 06 June)

Event Time Altitude Azimuth Distance (km) Brightness Sun altitude
Rises 21:54:10 0° 356° (N) 3,252 ? -23.8°
Reaches altitude 10° 21:57:49 10° 329° (NNW) 2,318 ? -24.3°
Maximum altitude 21:59:56 13° 304° (NW) 2,133 ? -24.7°
Drops below altitude 10° 22:02:03 10° 279° (W) 2,311 ? -25.0°
Sets 22:05:42 0° 252° (WSW) 3,232 ? -25.5°
